CZ-6A DEB, 54525

Orbit data source: Space-Track

CZ-6A DEB, 54525 is space debris in SSO originally from a launch on Fri, 11 Nov 2022 UTC launched from the Taiyaun Space Center, China (TSC). Debris objects in space refer to the collection of defunct objects orbiting the Earth. Examples of debris include non-operational satellites, rocket bodies, and fragments generated from explosions, collisions, or faulty payload assembly.

Loading next visibility...
Identifier
54525, 2022-151KD
Orbit
SSO
Country
Flag of CNCN / PRC
Related business
Manufacturer
SAST
Mission
Spacecraft
Bus & Motor
Unknown
Mass
Unknown
Launch date (UTC)
2022-11-11 (3 years ago)
Launch vehicle
Unknown
Launch site
Taiyaun Space Center, China (TSC)
Object type
Payload
Rocket body
Debris
Shape & HBR
Unknown shape, 0.2 m
Radar Cross Section
Small (<0.1 m²)

Expand to show TLE details & history
Last TLE update: 6 hours ago

TLE from 6 hours ago
0 CZ-6A DEB
1 54525U 22151KD  25352.25869432  .00000408  00000-0  27212-3 0  9997
2 54525  98.8455 341.1035 0069375 162.7111 197.6442 14.05410845158737
Epoch: 2025-12-18T06:12Z
TLE epoch observation values (Epoch: 2025-12-18T06:12:31.189Z)
Latitude
-0.00004°
Longitude
160.85678°
Altitude
926.002 km
Speed
7.364 km/s
True Right ascension
22h 44m 24s
True Declination
0° 00' 00"
Sunlit
Object was in daylight at epoch
Visualization orbit readout
Latitude
Unknown
Longitude
Unknown
Altitude
Unknown
Speed
Unknown
Apparent Right ascension
Unknown
Apparent Declination
Unknown
Sunlit
N/A
Visualization observer readout
Local Sidereal Time
11:25:56
Azimuth
Unknown
Elevation
Unknown
Doppler factor
Unknown
Orbital elements
Apogee altitude
922.603 km
Perigee altitude
822.003 km
Semi-major axis
7,250.44 km
Eccentricity
0.00694
Inclination
98.8455°
RAAN
341.1035°
Arg. of periapsis
162.7111°
True anomaly
197.40521°
Mean anomaly
197.6442°
Eccentric anomaly
197.52451°
Mean motion
3.51558 °/min
Orbital period
102.4 mins
BSTAR
0.00027212
Loading maneuver chart data...
Computing Atmospheric mass density...
Loading historical data...
Loading historical data...
Loading historical data...
Loading historical data...
Loading historical data...
Loading historical data...
Loading historical data...

Documentation

Showing up to 5 results
|